Temp
26 26 26 26 26 25 26 26 27 27 27 27 27 27 27 27 26 27 26 28 27 25 24 24 24 24 23 23 22 22 21 21 21 20 19 19 19 18 18 19 19 18 18
26 27 27 27 27 26 26 27 27 27 27 27 27 26 27 27 26 24 26 25 25 25 26 25 25 24 24 23 23 22 22 21 21 20 20 19 19 19 19 19 18 18 18
26 26 26 26 27 27 27 26 26 26 26 26 27 26 24 23 23 25 27 27 26 26 25 26 25 25 24 23 23 22 21 21 21 21 20 20 20 19 19 19 19 19 19
25 25 25 25 26 27 26 25 26 26 25 25 26 26 23 25 22 25 26 27 26 25 26 25 24 24 23 23 23 22 22 22 21 21 21 20 20 20 20 20 20 19 19
24 25 25 25 26 26 25 26 26 25 24 25 25 25 25 25 25 25 27 26 27 26 25 23 23 23 22 23 22 22 22 22 21 21 21 21 21 20 20 20 20 19 19
24 24 24 24 25 25 25 25 25 24 24 24 25 25 24 25 26 24 25 26 25 25 25 25 25 23 21 22 23 21 21 21 22 22 22 22 21 21 21 20 20 20 19
23 23 24 24 24 24 24 24 24 24 24 24 25 25 24 25 24 26 26 25 24 24 24 26 23 22 22 22 22 22 22 21 22 22 22 22 22 22 21 21 20 20 20
23 23 23 23 24 24 24 23 24 23 24 24 24 24 21 24 26 24 25 23 22 23 23 23 22 23 22 22 21 22 22 21 20 20 21 21 21 21 21 21 21 20 20
23 23 23 23 23 23 23 23 23 23 23 24 24 24 21 21 22 21 24 23 23 22 21 21 21 21 21 21 21 21 21 21 20 19 20 19 19 20 20 20 20 20 20
24 24 23 23 23 23 23 23 23 23 23 23 24 24 24 24 21 21 23 22 22 21 20 20 20 20 21 21 21 21 21 21 21 20 18 19 19 19 19 19 19 19 20
24 24 24 23 23 23 23 23 23 23 23 23 23 23 24 24 24 22 21 21 21 21 20 20 20 20 20 21 20 20 20 20 20 19 18 16 17 17 17 18 18 18 18
23 24 24 23 23 23 23 23 23 23 23 23 23 23 23 24 24 23 21 20 20 20 20 20 20 20 20 20 20 20 20 19 19 19 19 18 18 17 16 16 16 16 17
24 24 24 24 23 23 23 23 23 23 23 23 23 23 24 24 25 24 23 22 21 21 20 20 20 21 20 20 20 20 19 19 19 19 19 18 18 18 17 16 15 15 15
24 24 24 23 23 23 23 23 23 23 23 23 23 23 23 23 24 25 23 22 19 21 21 21 20 20 21 20 19 20 20 19 19 19 18 18 18 18 18 18 17 17 17
24 24 23 23 23 23 23 22 23 23 22 22 22 23 23 24 23 24 24 23 22 19 18 20 21 20 19 19 19 20 19 19 19 19 19 18 18 17 18 18 17 17 17
23 23 23 23 22 22 22 22 22 22 21 21 21 22 23 23 23 23 23 22 23 22 17 20 20 21 20 19 19 19 19 19 19 19 19 18 18 18 18 18 18 17 17
23 23 23 22 22 22 22 22 21 21 21 21 21 21 21 22 23 22 22 23 22 22 19 20 20 21 20 20 19 19 19 19 18 18 18 18 18 18 18 17 17 17 17
22 22 22 22 22 22 21 21 21 20 20 20 20 21 20 21 21 21 22 22 21 22 21 20 21 21 21 20 20 19 18 18 18 18 18 17 18 18 17 17 16 16 16
22 21 22 21 21 21 21 21 20 20 20 19 19 19 20 20 20 20 21 21 22 21 21 21 20 19 19 19 20 19 18 18 18 18 18 17 17 17 17 17 16 16 16
21 22 21 21 20 20 20 20 20 20 19 19 19 19 19 20 19 19 20 20 20 21 20 19 18 18 19 18 18 18 19 18 18 18 18 17 17 17 16 16 16 16 16
21 21 21 20 20 20 20 20 20 19 19 19 19 19 19 19 19 19 19 19 19 19 18 18 17 17 17 17 16 17 17 18 18 18 18 17 17 17 16 16 15 15 15
21 21 20 21 21 20 20 20 20 19 19 19 19 19 18 18 18 18 19 18 18 18 17 17 16 16 16 15 16 16 17 17 16 18 18 17 16 16 16 16 15 15 15
20 20 20 21 21 20 20 20 20 19 19 19 18 18 17 18 18 17 18 18 17 18 18 18 17 16 16 16 16 16 16 16 15 17 18 16 17 17 16 15 15 15 15
20 20 20 20 20 20 20 20 20 19 19 19 19 18 18 18 18 18 17 17 17 17 17 17 17 16 16 16 16 16 16 16 16 16 17 16 15 16 16 15 15 15 15
20 20 20 20 20 19 20 20 20 19 19 19 18 18 19 18 18 18 17 17 17 17 17 17 17 16 16 16 16 17 16 16 15 15 16 15 15 15 16 15 15 15 14
20 20 20 20 20 19 20 20 19 19 19 18 18 18 18 18 18 17 17 17 17 17 17 17 17 17 16 16 16 16 16 15 15 14 15 15 15 14 14 15 15 15 14
Height
852 854 855 855 855 854 854 852 852 851 849 848 846 844 841 839 835 833 831 830 831 838 839 836 833 833 834 833 834 834 833 833 833 833 833 832 834 835 835 836 836 837 839
851 852 853 853 853 853 853 852 851 850 849 847 845 844 838 837 834 838 833 833 834 837 836 835 833 833 833 832 830 830 831 832 831 831 831 830 830 830 831 831 831 831 832
851 852 853 853 851 851 851 850 850 849 848 847 844 843 843 839 837 835 833 835 836 838 840 833 834 832 833 834 834 832 832 832 832 830 829 828 827 827 826 826 824 823 825
852 854 854 854 853 852 851 851 850 848 848 846 844 843 839 836 828 831 833 833 835 836 835 834 835 833 831 832 831 832 830 832 830 829 828 826 824 823 822 821 818 811 812
852 854 855 854 853 852 850 849 848 848 847 846 843 843 839 835 832 833 836 837 837 834 838 837 833 830 832 832 832 832 830 831 830 829 827 824 823 821 819 817 814 811 804
853 854 855 854 853 852 851 850 849 848 848 846 844 842 838 837 837 838 837 838 838 838 837 833 831 830 835 835 834 834 832 832 829 828 826 824 821 819 817 815 812 810 811
853 854 854 854 853 852 851 850 848 847 845 845 843 840 839 838 838 838 839 840 839 837 835 834 835 836 838 836 835 835 833 832 830 828 826 824 821 819 817 814 812 811 812
853 854 854 854 853 852 851 849 848 847 845 846 844 841 842 840 837 841 840 840 843 839 837 836 837 837 838 838 839 838 835 832 831 829 826 824 822 820 817 815 813 812 813
851 853 854 853 853 852 850 848 847 846 846 845 844 843 844 846 843 845 843 843 845 843 843 844 843 841 841 841 840 839 837 835 832 830 828 826 825 822 819 817 815 814 814
849 851 852 852 851 851 850 848 846 846 845 844 844 842 842 842 845 851 849 848 847 848 849 847 848 846 844 842 842 840 839 837 835 833 831 829 828 825 823 820 818 816 815
847 848 849 850 849 849 849 847 846 845 844 844 843 842 842 842 842 843 849 850 849 850 851 848 850 848 846 845 844 844 842 841 839 836 834 832 831 828 826 824 823 820 818
844 845 846 847 848 848 847 846 846 845 844 843 843 842 842 842 842 842 845 849 850 852 852 850 850 850 849 848 847 847 846 843 842 839 837 836 834 831 830 829 827 824 821
841 843 843 845 846 846 846 845 845 845 844 844 843 842 840 839 840 841 843 845 848 851 853 852 852 851 851 850 850 849 848 846 844 841 840 838 836 835 833 831 829 827 825
839 840 840 843 844 843 845 845 845 845 845 844 844 843 841 839 841 841 842 844 849 850 853 854 855 854 853 852 852 851 850 849 847 846 844 842 840 839 837 835 833 830 827
838 839 840 841 842 842 843 844 844 845 844 844 844 844 842 841 842 842 843 843 844 850 854 855 855 855 855 855 855 853 853 852 851 849 847 845 845 844 842 839 837 835 833
837 838 838 840 841 841 843 844 844 845 845 846 846 844 843 843 843 844 844 844 842 843 851 855 856 856 855 856 856 856 855 855 853 852 850 849 848 847 846 843 841 839 837
837 836 837 839 841 843 844 843 845 847 846 847 847 846 845 845 845 846 845 844 842 843 849 855 856 857 857 856 855 856 856 856 855 855 853 852 851 850 849 848 846 843 841
836 837 837 841 842 844 844 845 847 848 849 848 849 848 847 848 848 849 848 848 848 849 850 855 857 858 857 856 855 856 856 857 857 857 856 855 855 852 851 849 847 845 843
835 839 840 841 843 844 846 847 847 849 850 850 850 850 850 850 851 851 851 850 850 851 852 854 857 858 857 857 857 859 859 860 859 859 858 856 856 854 853 852 852 849 847
836 839 841 842 844 846 847 849 848 851 851 851 851 851 851 852 852 853 853 853 852 851 854 855 856 858 858 859 858 858 858 859 859 859 858 858 857 856 856 855 852 850 848
836 839 841 843 845 847 848 849 849 851 852 852 852 853 853 853 854 855 855 856 854 853 854 856 858 860 861 860 861 862 860 861 861 860 859 858 857 856 856 855 854 853 851
836 839 841 843 845 846 848 850 850 852 852 852 853 854 855 856 857 857 857 857 856 857 859 859 860 862 863 863 863 863 861 859 859 859 858 858 857 855 856 857 856 855 852
835 838 840 842 844 846 848 849 851 852 852 853 855 856 857 858 859 860 860 860 860 860 860 860 861 863 864 864 863 861 861 859 861 860 858 857 855 853 853 855 856 855 853
835 838 839 841 843 845 847 848 849 851 853 855 855 856 859 860 861 861 862 862 863 863 864 864 864 865 865 865 864 863 863 862 863 861 858 857 856 855 854 855 855 855 854
833 835 837 839 840 843 845 847 849 851 853 855 856 858 859 860 861 861 861 862 864 865 865 865 865 865 866 866 865 863 861 860 861 863 861 860 858 856 855 855 854 854 853
830 832 835 837 839 840 844 846 848 850 852 855 857 858 859 859 860 861 862 863 863 863 864 865 865 865 865 865 864 863 863 863 861 861 863 862 859 857 856 855 854 854 852
Wind_Speed
6 7 4 6 10 3 4 4 10 12 15 20 20 24 22 17 21 13 2 2 6 10 3 3 2 8 12 14 15 14 17 19 18 18 18 20 22 23 22 24 25 27 26
7 3 2 4 8 9 11 11 14 17 16 18 21 25 17 10 7 15 7 11 14 1 1 4 1 2 5 8 9 11 13 14 16 16 17 19 18 23 24 24 25 26 29
8 3 2 7 7 9 11 12 13 15 20 22 22 23 20 16 6 7 6 8 5 3 5 7 4 3 2 4 6 9 12 13 14 14 14 16 19 21 25 27 28 27 27
4 3 7 5 4 6 14 10 18 20 20 23 24 19 14 19 11 7 3 11 9 7 2 3 5 8 7 6 6 7 5 6 7 9 12 14 16 19 22 25 28 32 30
1 5 4 3 9 7 12 16 20 19 23 23 22 14 9 7 5 4 6 10 5 6 12 5 2 10 12 11 11 8 8 8 6 7 8 9 12 16 18 19 20 20 18
1 6 3 8 8 10 12 15 18 19 18 17 19 11 3 7 5 4 7 13 15 18 15 15 11 13 15 8 12 13 12 10 10 9 11 11 11 13 13 12 12 11 11
7 6 4 7 8 9 12 15 15 21 20 15 12 17 4 1 9 10 13 14 20 21 19 16 15 15 12 12 12 11 12 12 11 11 10 12 14 14 14 12 10 8 6
12 8 4 8 8 11 13 13 18 19 14 16 8 7 3 1 16 11 14 21 22 27 25 22 19 14 12 14 14 13 12 13 16 15 14 12 14 15 14 13 12 10 7
16 11 7 11 11 11 15 15 17 12 11 13 10 3 2 1 5 10 17 15 21 26 26 22 20 20 18 17 16 16 14 15 16 18 19 19 16 15 17 17 13 11 9
18 15 10 12 10 12 15 15 11 9 9 10 7 6 1 1 3 2 11 21 24 22 21 22 21 21 19 19 18 18 17 17 17 18 20 20 19 18 18 16 17 17 11
16 15 17 15 12 14 11 12 5 7 6 7 6 5 3 4 4 2 3 10 23 21 19 20 19 21 21 19 20 20 19 19 18 19 21 23 22 24 23 19 19 18 17
12 12 13 14 9 10 9 4 4 4 4 5 3 5 7 3 4 6 4 6 15 18 19 19 18 18 17 19 19 19 18 17 18 19 19 19 20 21 22 22 23 22 20
14 14 11 10 11 7 5 2 2 4 4 5 8 10 7 10 9 9 8 4 6 9 14 14 13 15 14 13 16 20 20 20 19 20 20 21 21 22 22 23 23 23 22
11 8 10 11 7 6 4 1 7 6 4 5 6 9 13 13 9 6 7 11 3 3 10 8 11 5 9 10 13 18 19 19 19 20 21 21 22 22 24 24 24 24 24
9 7 11 8 6 2 6 9 7 7 11 8 5 8 14 13 14 5 8 8 4 3 2 3 3 12 6 7 9 13 18 19 21 21 20 20 19 21 23 24 25 25 25
12 8 8 7 10 8 7 12 10 9 13 13 13 13 15 16 18 19 14 15 12 6 4 11 12 12 14 7 7 7 15 15 17 18 18 19 21 21 22 24 25 25 24
8 9 11 12 11 9 12 12 12 12 15 12 13 15 17 15 15 16 15 18 15 24 18 14 12 11 13 5 5 6 8 9 13 12 13 14 17 19 20 21 23 25 23
5 10 13 14 12 9 11 16 16 15 15 15 12 13 17 17 18 16 16 16 16 19 21 18 12 13 14 19 1 5 7 5 9 8 7 8 11 12 16 17 19 22 24
12 14 13 12 12 12 15 16 17 16 15 14 12 13 14 15 16 14 13 13 13 12 17 19 14 16 17 17 19 18 5 7 3 2 1 2 5 7 10 15 17 19 21
15 11 11 14 15 15 16 16 18 15 13 11 10 12 14 14 12 12 13 16 17 18 16 20 18 16 11 14 15 17 14 10 5 5 3 3 2 2 6 9 11 12 15
13 13 14 15 16 17 15 14 17 13 14 18 18 18 17 15 14 13 12 13 16 22 22 18 16 14 13 11 14 14 12 11 5 15 9 3 7 6 2 3 7 11 14
14 17 15 17 17 17 16 15 17 15 13 16 18 18 18 17 16 16 14 13 13 15 18 17 13 13 10 9 10 13 13 9 4 10 9 11 5 9 7 2 4 8 14
18 17 16 15 18 18 16 18 13 13 13 13 13 15 12 10 10 12 13 13 14 14 11 9 14 13 13 9 9 12 16 10 10 13 7 17 18 16 9 7 5 9 14
19 19 18 16 17 18 16 17 16 16 11 12 10 15 12 11 10 6 9 11 12 11 14 14 13 13 12 12 9 10 16 11 12 19 10 9 20 15 6 6 5 9 15
20 21 19 15 15 20 18 18 17 17 15 13 11 8 6 8 7 9 10 8 7 6 7 7 6 5 6 9 13 8 12 13 4 14 18 8 13 13 5 6 4 3 6
22 21 17 13 16 23 22 19 17 16 14 12 9 8 6 5 8 8 7 7 6 4 3 4 3 4 3 4 7 11 8 9 6 2 8 6 11 12 4 10 5 4 4
Wind_Direction
232 183 238 271 355 338 348 21 345 340 346 336 333 337 327 322 4 10 331 336 303 221 252 314 311 249 246 258 261 268 250 256 257 261 252 252 253 245 243 243 242 242 225
151 167 344 328 340 4 14 349 342 350 340 342 343 4 3 332 267 359 47 266 280 75 227 20 358 272 282 272 265 265 268 263 265 270 268 256 262 257 251 247 248 245 239
172 113 308 353 349 336 3 341 354 350 344 345 343 358 9 28 254 313 308 49 68 161 27 46 52 68 39 343 319 299 281 279 279 280 279 269 267 265 264 255 252 247 238
166 180 21 70 342 327 357 4 355 352 347 347 349 360 38 16 338 267 187 60 86 123 107 81 30 49 67 55 23 4 355 313 296 300 296 289 282 279 279 273 268 254 233
34 279 360 9 342 5 357 342 340 350 341 346 348 7 43 129 210 206 44 21 51 109 65 96 119 66 54 64 48 41 46 39 31 -0 341 320 306 303 301 299 293 293 287
185 308 311 11 19 356 347 343 348 337 338 339 338 350 90 126 127 297 17 59 68 94 99 77 56 71 64 69 65 65 64 56 44 28 22 14 1 347 330 319 321 317 310
204 244 299 348 346 340 332 343 344 335 337 351 352 2 84 284 34 76 70 61 87 97 94 46 90 105 81 78 73 73 64 50 44 41 34 27 25 18 16 7 2 3 4
212 224 282 295 302 319 334 337 337 334 339 8 358 333 357 301 35 65 64 71 88 95 91 97 95 98 83 80 71 66 57 54 51 46 41 38 32 28 24 22 20 13 1
221 229 254 283 294 312 320 323 334 343 337 354 30 52 5 339 55 81 79 98 89 91 101 96 92 93 88 81 70 62 54 50 50 50 48 47 42 31 28 29 19 10 1
229 238 244 264 280 294 308 321 328 348 354 352 17 34 94 237 104 107 87 88 92 95 102 99 90 84 77 70 65 57 51 47 45 49 51 51 51 48 44 37 30 34 15
229 237 241 252 265 292 301 312 324 345 357 356 21 15 29 38 97 158 119 107 84 100 98 97 88 78 75 70 65 58 50 51 53 54 53 53 51 50 50 48 47 42 41
218 239 233 243 258 282 300 299 301 339 19 39 35 24 359 353 17 80 97 93 104 91 93 97 84 73 70 70 70 62 56 52 52 51 48 47 47 49 51 50 50 48 45
217 233 235 231 243 265 271 257 336 78 82 66 50 36 45 101 78 87 87 142 136 112 91 95 86 76 74 82 72 68 60 57 55 57 57 55 54 54 52 50 50 49 46
211 234 205 227 231 246 231 169 116 93 66 113 92 70 65 62 45 65 88 108 95 91 111 95 81 76 59 83 79 81 72 64 59 58 59 58 56 57 56 55 52 49 47
208 214 201 206 228 124 129 134 123 103 105 86 77 88 64 77 67 84 89 81 125 152 85 124 87 72 77 88 99 90 85 76 71 65 65 62 61 62 59 55 52 50 48
210 201 198 177 131 123 130 132 116 112 99 85 81 81 78 76 73 70 83 68 55 134 119 116 95 64 88 109 114 89 93 89 86 68 65 69 69 66 62 58 53 48 44
224 187 155 136 126 111 125 126 119 115 100 101 86 79 77 75 79 73 74 66 95 124 117 114 110 80 77 75 146 160 119 106 95 76 60 69 74 71 66 60 54 49 43
181 160 136 133 125 134 141 120 117 107 103 95 90 94 81 84 85 77 74 71 99 121 122 118 109 92 60 54 95 184 171 163 107 83 54 71 82 81 70 61 56 48 43
176 144 146 148 150 144 129 124 117 114 112 111 109 97 91 93 82 82 80 74 80 112 120 127 100 78 65 56 66 71 172 206 121 55 6 117 112 98 72 59 52 50 46
150 157 156 144 142 137 131 128 127 128 120 115 105 100 99 94 84 78 79 69 75 87 118 108 96 77 66 54 60 40 37 76 90 29 330 250 189 133 76 62 65 65 55
158 162 150 145 147 140 139 137 138 131 117 111 108 103 96 90 85 86 90 79 85 93 102 93 78 65 45 37 34 28 29 44 49 35 64 70 266 239 184 59 61 60 50
161 154 155 155 157 151 150 148 143 131 124 121 120 110 99 87 83 74 74 76 80 91 93 94 83 69 53 50 42 24 20 8 1 8 22 61 12 257 222 191 93 75 52
161 156 164 165 161 153 156 156 154 145 131 139 143 126 114 101 102 93 78 86 80 72 72 87 97 88 64 53 38 33 24 60 67 31 23 44 32 41 205 205 116 69 48
167 168 171 170 165 160 156 155 154 149 147 140 130 172 135 119 95 118 114 90 83 88 90 89 95 88 76 65 49 45 54 94 54 38 32 45 28 26 29 175 130 70 36
171 177 178 179 178 163 158 156 159 156 147 136 131 135 140 142 147 122 133 117 110 121 111 109 104 107 87 64 42 39 43 54 76 37 32 32 17 5 47 18 177 77 36
175 180 181 191 178 168 165 163 167 164 154 150 148 146 133 155 167 158 150 161 157 142 205 251 244 238 178 114 57 42 48 53 63 54 28 27 4 13 4 14 133 88 61